Regional Weather Roundup
Issued by NWS New Orleans/Baton Rouge, LA

Home | Current Version | Previous Version | Text Only | Print | Product List | Glossary Off
Versions: 1 2 3 4 5 6 7 8 9 10 11 12 13 14 15 16 17 18 19 20 21 22 23 24 25 26 27 28 29 30 31 32 33 34 35 36 37 38 39 40 41 42 43 44 45 46 47 48 49 50

930
ASUS44 KLIX 210801
RWRLIX
NEW ORLEANS REGIONAL WEATHER ROUNDUP
NATIONAL WEATHER SERVICE NEW ORLEANS LA
200 AM CST SUN DEC 21 2014

NOTE: "FAIR" INDICATES FEW OR NO CLOUDS BELOW 12,000 FEET WITH NO
      SIGNIFICANT WEATHER AND/OR OBSTRUCTIONS TO VISIBILITY.
      SKY/WX - SKY CONDITION AND SIGNIFICANT WEATHER.
      TMP - AIR TEMPERATURE.     DP    - DEWPOINT TEMPERATURE.
      RH  - RELATIVE HUMIDITY.   PRES  - PRESSURE.
      HI  - HEAT INDEX.          WCI   - WIND CHILL INDEX.

*  THESE STATIONS ARE NOT NWS OR FAA STATIONS AND ARE NOT UNDER
   NWS QUALITY CONTROL.

LAZ038-040-048-061>063-065>067-069-210900-
SOUTHEAST LOUISIANA

CITY           SKY/WX    TMP DP  RH WIND       PRES   REMARKS
N.O. AUDUBON     N/A     54  50  87 MISG        N/A
N.O. INTL ARPT CLOUDY    53  47  79 NE10      30.13F
N.O. LAKEFRONT CLOUDY    54  48  80 E15       30.14F
N.O. DOWNTOWN* CLOUDY    52  45  76 NE6       30.13F
SLIDELL        CLOUDY    52  47  83 N5        30.13F
BATON ROUGE    CLOUDY    46  44  93 N3        30.15F
BOOTHVILLE     CLOUDY    54  53  97 NE9       30.12F FOG
BELLE CHASSE   CLOUDY    53  49  86 NE9       30.12F
BOGALUSA*        N/A     51  45  80 NE3       30.17S
GALLIANO*      NOT AVBL
NEW ROADS*     NOT AVBL
GONZALES*      NOT AVBL
HAMMOND*       NOT AVBL
HOUMA*         NOT AVBL
PORT FOURCHON* CLOUDY    55  52  88 NE13G20   30.14R

$$

MSZ070-080>082-210900-
SOUTHERN MISSISSIPPI

CITY           SKY/WX    TMP DP  RH WIND       PRES   REMARKS
MCCOMB         CLEAR     44  40  85 NE6       30.15F
GULFPORT       CLOUDY    50  46  86 N5        30.13F
BILOXI         CLOUDY    51  48  90 NE6       30.13
PASCAGOULA     CLOUDY    51  47  86 N6        30.13F

$$

COASTAL OBSERVATIONS
LAKE AND NEARSHORE STATIONS

STATION/POSITION TIME  TEMP    WIND        PRES    WAVE
                       AIR SEA DIR/SP/G            HT/PER
                 (UTC) (F)     (DEG/KT/KT) (MB)    (FT/S)
PASCAGOULA       0700   51      20/  7/  8 1019.8
WAVELAND YACHT   0700   51      30/  7/  9 1019.5
GRAND ISLE       0700   54 60   60/ 10/ 15 1019.9
SOUTHWEST PASS   0700   56                 1019.1
NEW CANAL        0700   53 56   60/ 12/ 14 1020.5
SHELL BEACH      0700   52 57   40/ 12/ 13 1020.3

OFFSHORE STATIONS

STATION/POSITION TIME  TEMP    WIND        PRES    WAVE
                       AIR SEA DIR/SP/G            HT/PER
                 (UTC) (F)     (DEG/KT/KT) (MB)    (FT/S)
64 S DAUPHIN ISL 0800   63 74   30/ 16/ 19 1018.0    6/ 6

$$




USA.gov is the U.S. government's official web portal to all federal, state and local government web resources and services.